Location: Andershausen
(51.8462°N, 9.8595°E)
Time: 06:49:47
(UTC+00:00)

Cosmos 540 Rocket - Pass Details

Date: 18 November 2025
Orbit: 735 x 747 km, 74.1° (Epoch: 11 December)

Event Time Altitude Azimuth Distance (km) Brightness Sun altitude
Rises 16:36:32 0° 334° (NNW) 3,203 6.8 -10.8°
Reaches altitude 10° 16:38:54 10° 335° (NNW) 2,273 6.0 -11.1°
Maximum altitude 16:44:04 87° 65° (ENE) 752 3.4 -11.9°
Drops below altitude 10° 16:49:11 10° 156° (SSE) 2,249 5.8 -12.6°
Sets 16:51:31 0° 156° (SSE) 3,166 6.6 -13.0°
